Total_Precipitation_Accumulation
0.03 0.07 0.13 0.29 0.89 1.12 0.85 0.53 0.43 0.34 0.34 0.30 0.31 0.30 0.36 0.52 0.77 1.12 0.53 0.19 0.08 0.07 0.11 0.20 0.31 0.29 0.27 0.26 0.26 0.26 0.24 0.25 0.23 0.23 0.25 0.26 0.23 0.20 0.21 0.23 0.27 0.32 0.35 0.35 0.40 0.44 0.41 0.44 0.50
0.06 0.08 0.16 0.46 0.90 0.86 0.62 0.47 0.37 0.27 0.29 0.35 0.47 0.48 0.38 0.46 0.45 0.38 0.32 0.25 0.09 0.07 0.08 0.10 0.20 0.22 0.22 0.22 0.21 0.23 0.21 0.19 0.19 0.19 0.21 0.22 0.23 0.20 0.20 0.24 0.29 0.34 0.34 0.35 0.43 0.42 0.42 0.40 0.44
0.07 0.10 0.20 0.52 0.61 0.44 0.36 0.27 0.25 0.29 0.37 0.46 0.53 0.56 0.56 0.53 0.41 0.37 0.32 0.21 0.16 0.12 0.09 0.11 0.16 0.17 0.19 0.20 0.20 0.22 0.21 0.18 0.16 0.17 0.20 0.21 0.22 0.23 0.23 0.27 0.31 0.36 0.39 0.38 0.38 0.38 0.42 0.42 0.44
0.07 0.14 0.28 0.39 0.27 0.15 0.14 0.17 0.24 0.35 0.55 0.77 0.78 0.74 0.67 0.46 0.35 0.31 0.34 0.26 0.21 0.14 0.10 0.13 0.17 0.15 0.16 0.17 0.18 0.20 0.19 0.17 0.18 0.18 0.20 0.22 0.23 0.25 0.25 0.27 0.31 0.38 0.44 0.43 0.41 0.42 0.42 0.41 0.44
0.06 0.19 0.35 0.31 0.16 0.12 0.13 0.17 0.28 0.41 0.59 0.79 0.83 0.88 0.86 0.57 0.37 0.34 0.32 0.31 0.25 0.18 0.12 0.13 0.21 0.20 0.18 0.19 0.21 0.21 0.19 0.17 0.17 0.18 0.22 0.25 0.26 0.26 0.27 0.28 0.35 0.40 0.43 0.42 0.42 0.44 0.42 0.42 0.46
0.06 0.18 0.24 0.20 0.12 0.10 0.14 0.20 0.29 0.42 0.60 0.78 1.03 1.11 1.01 0.76 0.63 0.55 0.42 0.51 0.38 0.28 0.18 0.21 0.28 0.28 0.25 0.25 0.27 0.26 0.22 0.20 0.21 0.21 0.24 0.27 0.27 0.29 0.32 0.35 0.39 0.40 0.43 0.42 0.40 0.40 0.38 0.39 0.50
0.02 0.09 0.13 0.12 0.09 0.09 0.13 0.20 0.30 0.46 0.61 0.86 1.15 1.27 1.09 0.91 0.77 0.69 0.64 0.70 0.71 0.54 0.41 0.35 0.33 0.32 0.30 0.34 0.35 0.33 0.29 0.27 0.27 0.28 0.27 0.28 0.27 0.30 0.34 0.43 0.44 0.43 0.44 0.43 0.41 0.39 0.43 0.47 0.54
0.02 0.04 0.08 0.07 0.05 0.07 0.14 0.19 0.32 0.54 0.72 0.95 1.14 1.27 1.33 1.01 0.83 0.91 1.08 1.23 1.31 1.14 0.91 0.67 0.46 0.46 0.39 0.37 0.40 0.39 0.34 0.32 0.32 0.31 0.30 0.34 0.39 0.45 0.52 0.54 0.50 0.52 0.55 0.57 0.58 0.56 0.59 0.67 0.74
0.02 0.04 0.06 0.03 0.04 0.11 0.15 0.19 0.28 0.40 0.60 0.84 1.03 1.08 1.00 0.94 1.08 1.30 1.65 1.68 1.50 1.49 1.31 1.17 0.93 0.67 0.64 0.56 0.49 0.56 0.53 0.52 0.55 0.62 0.59 0.65 0.83 0.87 0.96 0.83 0.78 0.82 0.89 0.95 1.00 1.02 1.03 1.01 0.93
0.01 0.02 0.03 0.02 0.02 0.05 0.12 0.18 0.28 0.42 0.83 1.41 1.41 1.07 0.85 1.03 1.29 1.48 1.76 1.98 1.57 1.52 1.35 1.35 1.29 0.99 0.85 0.78 0.93 1.14 1.05 1.05 1.06 1.23 1.11 1.31 1.42 1.25 0.92 0.99 1.11 1.21 1.46 1.55 1.64 1.72 1.64 1.47 1.30
0.00 0.01 0.01 0.01 0.01 0.01 0.05 0.12 0.22 0.46 0.92 1.62 1.78 1.34 1.14 1.24 1.60 1.61 1.85 2.03 1.93 1.75 1.63 1.37 1.46 1.27 1.19 1.24 1.30 1.42 1.50 1.49 1.46 1.52 1.53 1.72 1.61 1.37 1.22 1.42 1.69 1.83 1.98 2.13 2.29 2.31 2.01 2.01 2.13
0.00 0.00 0.00 0.01 0.01 0.02 0.09 0.17 0.27 0.35 0.77 1.12 1.10 1.00 1.16 1.37 1.69 1.89 1.95 2.16 2.19 2.03 1.93 1.80 1.79 1.74 1.67 1.64 1.54 1.42 1.26 1.30 1.43 1.56 1.60 1.77 1.81 1.84 1.80 1.87 1.94 2.08 2.37 2.70 2.70 2.75 2.67 2.75 2.61
0.00 0.00 0.00 0.02 0.03 0.04 0.10 0.14 0.26 0.42 0.53 0.65 0.63 0.81 1.24 1.53 1.91 2.23 2.57 2.77 2.82 2.74 2.57 2.54 2.62 2.38 2.12 1.94 1.60 1.31 1.18 1.07 1.18 1.29 1.40 1.46 1.69 1.90 1.91 1.75 1.78 1.77 1.99 2.38 2.80 2.84 3.08 3.15 2.87
0.00 0.00 0.01 0.03 0.04 0.05 0.09 0.13 0.29 0.50 0.51 0.62 0.77 1.00 1.39 1.85 2.23 2.47 3.21 3.59 3.81 3.74 3.53 3.32 3.35 2.84 2.47 2.15 1.72 1.47 1.24 1.19 1.12 1.06 1.12 1.34 1.49 1.70 1.65 1.62 1.74 1.80 1.78 1.93 2.34 2.59 2.88 2.92 2.62
0.01 0.04 0.06 0.07 0.05 0.06 0.10 0.25 0.43 0.56 0.75 0.79 0.96 1.18 1.52 2.10 2.57 3.02 3.55 4.28 4.70 4.85 4.44 3.82 3.54 3.18 2.85 2.52 2.02 1.59 1.37 1.14 1.11 1.04 1.02 1.11 1.24 1.39 1.37 1.45 1.42 1.49 1.49 1.52 1.68 1.93 2.16 2.18 2.11
0.03 0.10 0.20 0.12 0.07 0.08 0.14 0.50 0.67 0.58 0.87 1.21 1.16 1.43 1.83 2.36 2.82 3.49 4.18 4.99 5.50 5.65 5.04 4.29 3.58 3.58 3.35 2.97 2.30 1.76 1.44 1.23 1.07 1.00 0.91 0.87 0.91 0.89 0.93 0.99 0.98 0.97 0.92 1.00 1.21 1.34 1.52 1.75 1.91
0.03 0.08 0.16 0.18 0.12 0.10 0.19 0.61 0.78 0.59 0.74 1.04 1.28 1.53 1.95 2.32 2.66 3.29 3.96 4.75 5.34 5.84 5.61 4.93 4.66 4.40 3.74 2.94 2.28 1.79 1.48 1.31 1.13 1.04 0.92 0.85 0.76 0.70 0.75 0.80 0.86 0.69 0.66 0.70 0.72 0.97 1.14 1.37 1.50
0.02 0.04 0.10 0.22 0.17 0.18 0.26 0.47 0.74 0.78 0.95 1.15 1.30 1.45 1.72 1.92 2.23 2.74 3.28 3.73 4.31 4.81 4.70 4.58 4.61 4.10 3.49 2.80 2.26 1.87 1.56 1.32 1.13 1.02 0.99 0.92 0.83 0.74 0.77 0.70 0.66 0.56 0.61 0.70 0.80 0.98 0.98 1.01 1.13
0.02 0.04 0.08 0.15 0.16 0.23 0.36 0.50 0.71 0.87 1.10 1.26 1.29 1.25 1.32 1.54 1.83 2.14 2.53 2.87 3.08 3.24 3.33 3.62 3.80 3.48 2.95 2.46 1.92 1.62 1.47 1.27 1.12 1.02 0.90 0.89 0.82 0.83 0.82 0.69 0.73 0.63 0.62 0.65 0.69 0.79 0.82 0.80 0.80
0.03 0.06 0.11 0.14 0.14 0.19 0.35 0.63 0.81 0.89 0.91 0.99 1.10 1.06 1.08 1.29 1.38 1.48 1.70 2.02 2.11 2.32 2.63 2.98 3.21 3.04 2.47 2.18 1.89 1.69 1.53 1.36 1.28 1.18 1.00 0.83 0.79 0.77 0.69 0.76 0.64 0.62 0.67 0.69 0.70 0.77 0.80 0.73 0.71
0.04 0.05 0.06 0.10 0.11 0.19 0.35 0.87 0.99 0.87 0.79 0.69 0.80 0.86 0.83 0.91 1.02 1.01 1.10 1.26 1.57 2.04 2.19 2.23 2.46 2.64 2.35 2.19 2.06 1.88 1.72 1.47 1.38 1.28 1.08 0.83 0.74 0.73 0.72 0.67 0.66 0.76 0.60 0.73 0.83 0.81 0.79 0.77 0.69
0.04 0.03 0.02 0.02 0.07 0.30 0.42 0.87 0.99 0.87 0.87 0.68 0.63 0.63 0.54 0.53 0.69 0.83 0.84 0.90 1.10 1.42 1.70 1.94 2.17 2.31 2.21 2.07 1.85 1.63 1.39 1.20 1.09 1.06 1.05 0.98 0.87 0.77 0.75 0.67 0.71 0.79 0.68 0.85 0.68 0.69 0.77 0.77 0.67
0.01 0.01 0.01 0.03 0.10 0.27 0.40 0.73 0.95 0.79 0.92 0.68 0.42 0.31 0.26 0.27 0.38 0.55 0.67 0.75 0.78 0.98 1.36 1.77 2.08 2.28 2.15 1.84 1.66 1.61 1.47 1.34 1.24 1.13 1.20 1.08 1.01 0.89 0.79 0.76 0.77 0.73 0.68 0.74 0.75 0.88 0.79 0.76 0.71
0.01 0.02 0.08 0.17 0.29 0.61 0.61 0.59 0.89 0.68 0.48 0.32 0.22 0.17 0.19 0.20 0.26 0.35 0.42 0.51 0.64 0.78 1.02 1.29 1.58 1.84 1.86 1.69 1.58 1.56 1.53 1.49 1.35 1.11 1.05 0.99 0.95 0.93 0.90 0.91 0.87 0.79 0.70 0.70 0.71 0.79 0.82 0.86 0.91
0.02 0.03 0.16 0.37 0.63 0.83 0.49 0.62 0.97 0.56 0.36 0.22 0.17 0.16 0.17 0.15 0.21 0.31 0.37 0.34 0.46 0.56 0.66 0.81 1.09 1.31 1.44 1.50 1.49 1.43 1.50 1.50 1.35 1.18 1.06 1.01 0.87 0.83 0.84 0.85 0.91 0.85 0.82 0.80 0.79 0.77 0.77 0.84 0.88
0.02 0.02 0.06 0.12 0.25 0.41 0.48 1.08 0.92 0.39 0.24 0.20 0.16 0.17 0.16 0.15 0.16 0.25 0.34 0.31 0.32 0.38 0.51 0.64 0.85 1.02 1.13 1.19 1.27 1.28 1.26 1.20 1.22 1.27 1.14 1.03 0.95 0.89 0.85 0.85 0.82 0.81 0.82 0.82 0.93 0.78 0.71 0.76 0.75
0.02 0.02 0.03 0.04 0.06 0.25 0.58 0.77 0.48 0.21 0.19 0.21 0.17 0.15 0.15 0.19 0.23 0.24 0.30 0.30 0.25 0.29 0.38 0.45 0.62 0.76 0.86 0.96 1.08 1.09 1.11 1.05 1.06 1.08 1.04 0.98 1.01 0.99 0.92 0.85 0.83 0.86 0.87 0.88 0.92 0.85 0.84 0.84 0.74
0.03 0.02 0.02 0.02 0.05 0.18 0.43 0.68 0.68 0.38 0.29 0.25 0.21 0.18 0.15 0.21 0.30 0.30 0.27 0.32 0.28 0.27 0.33 0.38 0.47 0.60 0.70 0.81 0.89 0.89 1.02 1.03 1.13 1.10 1.01 0.94 0.89 0.88 0.92 0.90 0.83 0.87 0.91 0.96 0.98 0.95 1.01 1.06 0.95
0.04 0.03 0.03 0.03 0.04 0.09 0.29 0.44 0.45 0.35 0.31 0.24 0.20 0.20 0.21 0.19 0.28 0.31 0.30 0.29 0.25 0.24 0.26 0.29 0.40 0.52 0.61 0.72 0.78 0.85 0.90 0.95 1.01 1.06 1.05 1.00 0.94 0.91 0.92 0.90 0.85 0.83 0.86 0.92 0.95 0.93 1.05 1.18 1.22
0.05 0.06 0.06 0.05 0.05 0.06 0.12 0.20 0.21 0.24 0.29 0.26 0.25 0.28 0.25 0.18 0.18 0.22 0.24 0.22 0.19 0.22 0.23 0.24 0.29 0.37 0.45 0.63 0.77 0.81 0.90 0.95 0.94 0.96 1.12 1.13 1.08 1.05 1.05 1.03 1.01 0.94 0.88 0.92 0.90 0.84 0.89 1.06 1.25